OpenBCM V2.0.2 (Linux)

Packet Radio Mailbox

IZ3LSV

[San Dona' di P. JN]

 Login: GUEST





  
LU1HVK > KEP      10.01.20 17:46l 241 Lines 12023 Bytes #999 (0) @ WW
BID : 38649_LU1HVK
Read: GUEST
Subj: TLE 26 10
Path: IZ3LSV<IW0QNL<JH4XSY<N3HYM<XE1FH<LU1HVK
Sent: 200110/1524Z 38649@LU1HVK.2594.CBA.ARG.SA LinBPQ6.0.19

                         _    _   _ _ _   ___     ___  __
                        | |  | | | / | | | \ \   / / |/ /
                        | |  | | | | | |_| |\ \ / /| ' /
                        | |__| |_| | |  _  | \ V / | . \
                        |_____\___/|_|_| |_|  \_/  |_|\_\

     BBS/NODO - CORDOBA (LEONES-FF87UH) - LU1HVK-4 NODO - LU1HVK-3 APRS

+----------------------------------------------------------------------------+
OSCAR 7
1  7530U 74089B   19298.51722744 -.00000030  00000-0  92396-4 0  9991
2  7530 101.7627 264.9343 0012466  97.7364  15.6537 12.53640497 56668
OSCAR 11 (UoSAT 2)
1 14781U 84021B   19298.09131206  .00000093  00000-0  17511-4 0  9998
2 14781  97.6042 316.6881 0007031 255.5353 104.5082 14.83114466917794
OSCAR 19 (LUSAT)
1 20442U 90005G   19297.87136749 -.00000012  00000-0  11785-4 0  9999
2 20442  98.6604 239.7191 0012567 128.1691 232.0627 14.32935731554732
EYESAT A
1 22825U 93061C   19298.44811662  .00000014  00000-0  23429-4 0  9998
2 22825  98.9141 290.0880 0008228 351.4794   8.6246 14.30069388360358
ITAMSAT
1 22826U 93061D   19298.83946542  .00000011  00000-0  22099-4 0  9997
2 22826  98.9081 290.4640 0008518 338.0899  21.9917 14.30403584360611
RADIO ROSTO
1 23439U 94085A   19297.93982880 -.00000032 +00000-0 +28259-3 0  9997
2 23439 064.8152 268.7277 0145252 088.1781 273.5772 11.27568541022355
JAS 2
1 24278U 96046B   19297.91636127 -.00000031 +00000-0 +72684-5 0  9998
2 24278 098.5573 074.0465 0349302 267.5933 088.5182 13.53094329144891
TECHSAT 1B
1 25397U 98043D   19298.79558833 -.00000022  00000-0  97820-5 0  9993
2 25397  98.6995 237.4303 0002022  52.0497 308.0864 14.23672851106240
ISS (ZARYA)
1 25544U 98067A   19299.12601852 -.00000561  00000-0 -17455-5 0  9996
2 25544  51.6431  72.0175 0006757 187.8440 169.5279 15.50214271195564
PCSAT
1 26931U 01043C   19298.77169833 -.00000034  00000-0  18560-4 0  9994
2 26931  67.0532  30.5881 0007483 267.3155  92.7090 14.30556155943437
SAUDISAT 1C
1 27607U 02058C   19298.31764406  .00000024  00000-0  24164-4 0  9994
2 27607  64.5567  16.3357 0074305 231.4710 127.9717 14.75582108906010
CUTE-1
1 27844U 03031E   19298.82256938  .00000069  00000-0  50930-4 0  9990
2 27844  98.6853 305.1109 0010237  23.4432 336.7210 14.22201290846649
CUBESAT XI 4
1 27848U 03031J   19298.00709088  .00000054  00000-0  44147-4 0  9990
2 27848  98.6927 304.8335 0010368  36.9458 323.2432 14.21793355846378
MOZHAYETS 4
1 27939U 03042A   19298.77283344  .00000126  00000-0  31273-4 0  9995
2 27939  98.0591  72.2135 0013413  24.2779 335.9062 14.66811720859463
CUBESAT XI 5
1 28895U 05043F   19298.09670503  .00000135  00000-0  34897-4 0  9997
2 28895  97.9780  76.5685 0015706 309.1529  50.8278 14.63702720746266
CUTE-1.7+APD II
1 32785U 08021C   19298.43252570  .00000246  00000-0  32096-4 0  9999
2 32785  97.5570 292.1226 0012710 189.5114 170.5865 14.88362068622833
DELFI C3
1 32789U 08021G   19298.36004099  .00001555  00000-0  10717-3 0  9995
2 32789  97.4507 344.0628 0013206  50.6092 309.6303 15.07196232626345
SEEDS
1 32791U 08021J   19298.70342313  .00000367  00000-0  42491-4 0  9995
2 32791  97.5319 298.4674 0013726 162.0482 198.1224 14.90893811623338
YUBELEINY
1 32953U 08025A   19298.74067432  .00000020  00000-0  75656-4 0  9994
2 32953  82.5024  64.4983 0019207 205.8648 154.1478 12.43091960518347
PRISM (HITOMI)
1 33493U 09002B   19298.75822305  .00001027  00000-0  95089-4 0  9999
2 33493  98.1238 224.6134 0016502 112.7109 247.5858 14.96777561584450
KKS-1 (KISEKI)
1 33499U 09002H   19298.79696766  .00000129  00000-0  27058-4 0  9992
2 33499  98.3395 141.5719 0009692 148.9293 211.2490 14.75472364578267
SWISSCUBE
1 35932U 09051B   19298.42299847  .00000154  00000-0  45889-4 0  9999
2 35932  98.5991 108.2658 0008500 126.4374 233.7607 14.56321554535518
BEESAT
1 35933U 09051C   19298.48698375  .00000112  00000-0  36258-4 0  9999
2 35933  98.6009 110.1427 0006534 136.3344 223.8371 14.56405917535635
ITUPSAT 1
1 35935U 09051E   19297.72547229  .00000081  00000-0  29765-4 0  9998
2 35935  98.6117 109.5851 0008830 138.3939 221.7930 14.55560542535265
XIWANG-1 (HOPE-1)
1 36122U 09072B   19298.18357639 -.00000049  00000-0 -18500-4 0  9996
2 36122 100.0788 294.5480 0007968  51.9119 308.2712 13.16351450473789
TISAT 1
1 36799U 10035E   19297.91764240 +.00000520 +00000-0 +58408-4 0  9990
2 36799 098.1718 094.4607 0012836 030.9922 329.2050 14.91183653503678
JUGNU
1 37839U 11058B   19297.39158626  .00000323  00000-0  30160-4 0  9995
2 37839  19.9617 280.3867 0018673 295.2643 218.6114 14.12662319415339
SRMSAT
1 37841U 11058D   19298.46994321  .00000299  00000-0  18821-4 0  9999
2 37841  19.9732 333.2856 0011798 170.2442 328.3936 14.10641512414897
M-CUBED/EXP-1 PRIME
1 37855U 11061F   19297.86343390 +.00001888 +00000-0 +10119-3 0  9991
2 37855 101.7184 259.2733 0172972 056.7469 305.0185 15.05675201435598
HORYU 2
1 38340U 12025D   19298.60518846  .00000219  00000-0  39951-4 0  9998
2 38340  98.3159 340.9764 0012699  75.8269 284.4350 14.75764062400172
STRAND 1
1 39090U 13009E   19298.63228373  .00000043  00000-0  30182-4 0  9992
2 39090  98.4750 142.3580 0008044 266.0883  93.9383 14.35101755348886
SOMP
1 39134U 13015E   19298.49073220  .00001625  00000-0  82353-4 0  9995
2 39134  64.8626 323.0778 0037202 282.7094  76.9876 15.20423580360170
BEESAT 3
1 39135U 13015F   19297.85224950 +.00000996 +00000-0 +58396-4 0  9993
2 39135 064.8685 345.2666 0037789 289.2001 070.5037 15.17672903359301
BEESAT 2
1 39136U 13015G   19298.20182636  .00001122  00000-0  65852-4 0  9995
2 39136  64.8694 348.3336 0029263 294.1200  65.6866 15.17091072359660
CUBEBUG 1
1 39153U 13018D   19298.70946093  .00000241  00000-0  38265-4 0  9996
2 39153  97.9815  36.1307 0017932 137.4500 222.8106 14.80612551350905
ZACUBE
1 39417U 13066B   19298.60405066  .00000276  00000-0  41015-4 0  9996
2 39417  97.5625 304.8605 0058223 332.6586  27.1566 14.81166345320123
TRITON 1
1 39427U 13066M   19298.83730931  .00000230  00000-0  44164-4 0  9992
2 39427  97.6930 268.3451 0115069 111.7174 249.6329 14.67894445317282
GOMX 1
1 39430U 13066Q   19298.73683364  .00000126  00000-0  31968-4 0  9994
2 39430  97.7610 246.8823 0150248 207.0333 152.2990 14.59299306315423
HUMSAT D
1 39433U 13066T   19298.09191584  .00000336  00000-0  38045-4 0  9990
2 39433  97.5398 340.2591 0029643 230.2879 129.5727 14.92279156322224
CUBEBUG 2
1 39440U 13066AA  19297.88902640 +.00000267 +00000-0 +43948-4 0  9998
2 39440 097.6109 288.8106 0080980 029.4499 331.1238 14.75903011317686
FUNCUBE 1
1 39444U 13066AE  19297.99290853  .00000303  00000-0  43589-4 0  9992
2 39444  97.5595 306.3490 0057216 327.9290  31.8447 14.81995272318933
UWE-3
1 39446U 13066AG  19298.48568083  .00000282  00000-0  43961-4 0  9992
2 39446  97.5860 296.5180 0070047   1.0422 359.0923 14.78438706318293
SPROUT
1 39770U 14029E   19298.86257143  .00000637  00000-0  76352-4 0  9990
2 39770  97.8907  41.3636 0009618  28.5147 331.6603 14.87470718294039
UNISAT 6
1 40012U 14033C   19298.18015626  .00000207  00000-0  38117-4 0  9999
2 40012  97.7379 159.1356 0059376  44.1925 316.4004 14.74021991287616
DUCHIFAT 1
1 40021U 14033M   19298.76042305  .00000536  00000-0  60385-4 0  9994
2 40021  97.9258 223.7882 0012790 351.1321   8.9669 14.90714620290773
QB50P1
1 40025U 14033R   19297.78682765  .00000321  00000-0  40150-4 0  9999
2 40025  97.9047 217.2505 0012620   4.8125 355.3210 14.89004162290388
CHUBUSAT 1
1 40300U 14070C   19298.84589894  .00000382  00000-0  19549-4 0  9998
2 40300  97.3154   9.6934 0019689 325.6615 169.8188 15.22214840275666
NUDT-PHONESAT
1 40900U 15049B   19298.79914352  .00001726  00000-0  75850-4 0  9996
2 40900  97.4378 306.8952 0014372  92.5451 261.3095 15.23173664227307
ZDPS 2A
1 40901U 15049C   19298.69561816  .00000580  00000-0  31888-4 0  9999
2 40901  97.4627 302.6785 0014766 111.3204 338.5412 15.17886337226801
ZDPS 2B
1 40902U 15049D   19298.73383013  .00001096  00000-0  57513-4 0  9992
2 40902  97.4581 300.1085 0015018 109.0768 337.0033 15.17759632226784
XW-2A
1 40903U 15049E   19298.78507578  .00001581  00000-0  38706-4 0  9994
2 40903  97.3239 342.2011 0014552  43.2140  48.0678 15.42224117230147
KAITUO 1A
1 40904U 15049F   19298.75623794  .00000164  00000-0  12115-4 0  9993
2 40904  97.4719 298.5905 0015861 117.2563 328.7188 15.15469523226547
OBJECT G
1 40905U 15049G   19298.73041358  .00000546  00000-0  33265-4 0  9995
2 40905  97.4769 295.9829 0017052 113.5405 331.9846 15.14371225226409
XW-2C
1 40906U 15049H   19298.86816183  .00000684  00000-0  39185-4 0  9996
2 40906  97.4726 298.8440 0016310 108.7655   9.2636 15.15793533226563
XW-2D
1 40907U 15049J   19298.75068059  .00000381  00000-0  23253-4 0  9999
2 40907  97.4705 298.4095 0015748 106.6460 301.8514 15.15988919226568
LILACSAT 2
1 40908U 15049K   19298.75115140  .00000230  00000-0  16265-4 0  9992
2 40908  97.4841 297.0886 0017243 113.9338 332.1295 15.13871625226331
XW-2F
1 40910U 15049M   19298.72771341  .00000902  00000-0  48279-4 0  9999
2 40910  97.4660 300.5853 0016343  98.9669 348.3427 15.17484141226586
XW-2B
1 40911U 15049N   19298.73024608  .00000726  00000-0  41282-4 0  9999
2 40911  97.4725 299.0605 0015652 107.5039 338.6419 15.15920248226456
KAITUO 1B
1 40912U 15049P   19298.69425105  .00000886  00000-0  44454-4 0  9993
2 40912  97.4511 304.3970 0016452  82.4319   9.0653 15.19818274226904
TIANWANG 1C (TW-1C)
1 40926U 15051B   19298.78118756  .00011903  00000-0  15868-3 0  9990
2 40926  97.1210 344.8813 0005658 240.1783 212.2545 15.58247098230244
TIANWANG 1B (TW-1B)
1 40927U 15051C   19298.74854888  .00010882  00000-0  15500-3 0  9998
2 40927  97.1247 343.9550 0005503 260.2900 195.2269 15.56488322230075
